sat.trackr.live / text

‹ back to catalog

STARLINK-34679

NORAD 65442 · 2025-194J

PAYLOAD ACTIVE UNKNOWN

§ Identity

Operator
Country
US
Launch date
2025-09-03
Launch site
AFWTR
Launch vehicle
Mass (kg)
RCS (m²)

Purposes: comms

External: N2YO · Heavens-Above · Gunter

§ Orbital elements

Epoch: 2026-05-25T03:18:19.975680Z

Period
95.64 min
Inclination
97.4522°
Eccentricity
0.0001823
Mean motion
15.05660363 rev/d
Perigee alt
548.2 km
Apogee alt
550.7 km
Semi-major
6,927.6 km
B*
3.1651e-4
RAAN
359.4081°
Arg perigee
83.4021°
Mean anomaly
276.7413°
Rev number
4,115

§ Raw data

STARLINK-346791 65442U 25194J   26145.13773120  .00004512  00000+0  31651-3 0  99942 65442  97.4522 359.4081 0001823  83.4021 276.7413 15.05660363 41150

JSON: /api/v1/satellites/65442 · /tle

For live sub-satellite position, see the globe view (requires WebGL).

§ Visibility from observer

Set your observer location to see the next 7 days of passes ≥ 10°. The values pass through the URL so the page stays shareable.

No JS? Fill the form by hand. The geolocation button needs JavaScript.